Wetterdaten: Donnerstag, 06.08.2015
Datum Zeit Temp. A. Feuchte A. Luftdruck Regen Wind Richtung Richtung Sonnenschein ET UV Solar Taupunkt Windchill Windben Empfang
06.08.2015 00:00 19,6 C 78 % 1015,8 hPa 0,0 l/m 0,0 km/h (0 Bft) O 79 0 min 0,000 mm 0,0 UV-I 0 W/m 15,7 C 19,6 C 0,0 km/h (0 Bft) 0,00 %
06.08.2015 00:05 19,6 C 80 % 1015,8 hPa 0,0 l/m 0,0 km/h (0 Bft) O-NO 69 0 min 0,000 mm 0,0 UV-I 0 W/m 16,1 C 19,6 C 0,0 km/h (0 Bft) 0,00 %
06.08.2015 00:10 19,6 C 80 % 1015,6 hPa 0,0 l/m 0,0 km/h (0 Bft) NO 52 0 min 0,000 mm 0,0 UV-I 0 W/m 16,1 C 19,6 C 0,0 km/h (0 Bft) 0,00 %
06.08.2015 00:15 19,6 C 80 % 1015,7 hPa 0,0 l/m 0,0 km/h (0 Bft) O 80 0 min 0,000 mm 0,0 UV-I 0 W/m 16,1 C 19,6 C 0,0 km/h (0 Bft) 0,00 %
06.08.2015 00:20 19,6 C 81 % 1015,7 hPa 0,0 l/m 0,0 km/h (0 Bft) NO 47 0 min 0,000 mm 0,0 UV-I 0 W/m 16,2 C 19,6 C 0,0 km/h (0 Bft) 0,00 %
06.08.2015 00:25 19,6 C 81 % 1015,7 hPa 0,0 l/m 0,0 km/h (0 Bft) N-NO 30 0 min 0,000 mm 0,0 UV-I 0 W/m 16,2 C 19,6 C 0,0 km/h (0 Bft) 0,00 %
06.08.2015 00:30 19,6 C 81 % 1015,6 hPa 0,0 l/m 0,0 km/h (0 Bft) NO 54 0 min 0,000 mm 0,0 UV-I 0 W/m 16,2 C 19,6 C 0,0 km/h (0 Bft) 0,00 %
06.08.2015 00:35 19,6 C 81 % 1015,5 hPa 0,0 l/m 0,0 km/h (0 Bft) NO 48 0 min 0,000 mm 0,0 UV-I 0 W/m 16,2 C 19,6 C 0,0 km/h (0 Bft) 0,00 %
06.08.2015 00:40 19,6 C 81 % 1015,5 hPa 0,0 l/m 0,0 km/h (0 Bft) NO 44 0 min 0,000 mm 0,0 UV-I 0 W/m 16,2 C 19,6 C 0,0 km/h (0 Bft) 0,00 %
06.08.2015 00:45 19,6 C 82 % 1015,6 hPa 0,0 l/m 0,0 km/h (0 Bft) NO 46 0 min 0,000 mm 0,0 UV-I 0 W/m 16,4 C 19,6 C 0,0 km/h (0 Bft) 0,00 %
06.08.2015 00:50 19,6 C 82 % 1015,7 hPa 0,0 l/m 0,0 km/h (0 Bft) NO 44 0 min 0,000 mm 0,0 UV-I 0 W/m 16,4 C 19,6 C 0,0 km/h (0 Bft) 0,00 %
06.08.2015 00:55 19,5 C 82 % 1015,5 hPa 0,0 l/m 0,0 km/h (0 Bft) NO 49 0 min 0,000 mm 0,0 UV-I 0 W/m 16,3 C 19,5 C 0,0 km/h (0 Bft) 0,00 %
06.08.2015 01:00 19,5 C 82 % 1015,6 hPa 0,0 l/m 0,0 km/h (0 Bft) NO 46 0 min 0,000 mm 0,0 UV-I 0 W/m 16,3 C 19,5 C 0,0 km/h (0 Bft) 0,00 %
06.08.2015 01:05 19,4 C 82 % 1015,6 hPa 0,0 l/m 0,0 km/h (0 Bft) NO 46 0 min 0,000 mm 0,0 UV-I 0 W/m 16,2 C 19,4 C 0,0 km/h (0 Bft) 0,00 %
06.08.2015 01:10 19,4 C 83 % 1015,6 hPa 0,0 l/m 0,0 km/h (0 Bft) NO 46 0 min 0,000 mm 0,0 UV-I 0 W/m 16,4 C 19,4 C 0,0 km/h (0 Bft) 0,00 %
06.08.2015 01:15 19,2 C 83 % 1015,7 hPa 0,0 l/m 0,0 km/h (0 Bft) NO 48 0 min 0,000 mm 0,0 UV-I 0 W/m 16,2 C 19,2 C 0,0 km/h (0 Bft) 0,00 %
06.08.2015 01:20 19,1 C 83 % 1015,7 hPa 0,0 l/m 0,0 km/h (0 Bft) NO 45 0 min 0,000 mm 0,0 UV-I 0 W/m 16,1 C 19,1 C 0,0 km/h (0 Bft) 0,00 %
06.08.2015 01:25 19,0 C 84 % 1015,6 hPa 0,0 l/m 0,0 km/h (0 Bft) NO 45 0 min 0,000 mm 0,0 UV-I 0 W/m 16,2 C 19,0 C 0,0 km/h (0 Bft) 0,00 %
06.08.2015 01:30 19,0 C 85 % 1015,6 hPa 0,0 l/m 0,0 km/h (0 Bft) NO 44 0 min 0,000 mm 0,0 UV-I 0 W/m 16,4 C 19,0 C 0,0 km/h (0 Bft) 0,00 %
06.08.2015 01:35 18,8 C 86 % 1015,7 hPa 0,0 l/m 0,0 km/h (0 Bft) NO 44 0 min 0,000 mm 0,0 UV-I 0 W/m 16,4 C 18,8 C 0,0 km/h (0 Bft) 0,00 %
06.08.2015 01:40 18,7 C 86 % 1015,6 hPa 0,0 l/m 0,0 km/h (0 Bft) NO 43 0 min 0,000 mm 0,0 UV-I 0 W/m 16,3 C 18,7 C 0,0 km/h (0 Bft) 0,00 %
06.08.2015 01:45 18,6 C 87 % 1015,7 hPa 0,0 l/m 0,0 km/h (0 Bft) NO 55 0 min 0,000 mm 0,0 UV-I 0 W/m 16,4 C 18,6 C 0,0 km/h (0 Bft) 0,00 %
06.08.2015 01:50 18,5 C 87 % 1015,6 hPa 0,0 l/m 0,0 km/h (0 Bft) NO 51 0 min 0,000 mm 0,0 UV-I 0 W/m 16,3 C 18,5 C 0,0 km/h (0 Bft) 0,00 %
06.08.2015 01:55 18,4 C 88 % 1015,8 hPa 0,0 l/m 0,0 km/h (0 Bft) NO 53 0 min 0,000 mm 0,0 UV-I 0 W/m 16,4 C 18,4 C 0,0 km/h (0 Bft) 0,00 %
06.08.2015 02:00 18,4 C 88 % 1015,9 hPa 0,0 l/m 0,0 km/h (0 Bft) O-NO 65 0 min 0,000 mm 0,0 UV-I 0 W/m 16,4 C 18,4 C 0,0 km/h (0 Bft) 0,00 %
06.08.2015 02:05 18,3 C 88 % 1015,9 hPa 0,0 l/m 0,0 km/h (0 Bft) O-NO 65 0 min 0,000 mm 0,0 UV-I 0 W/m 16,3 C 18,3 C 0,0 km/h (0 Bft) 0,00 %
06.08.2015 02:10 18,2 C 89 % 1015,7 hPa 0,0 l/m 0,0 km/h (0 Bft) NO 46 0 min 0,000 mm 0,0 UV-I 0 W/m 16,4 C 18,2 C 0,0 km/h (0 Bft) 0,00 %
06.08.2015 02:15 18,1 C 89 % 1015,7 hPa 0,0 l/m 0,0 km/h (0 Bft) NO 44 0 min 0,000 mm 0,0 UV-I 0 W/m 16,3 C 18,1 C 0,0 km/h (0 Bft) 0,00 %
06.08.2015 02:20 18,0 C 89 % 1015,8 hPa 0,0 l/m 0,0 km/h (0 Bft) NO 45 0 min 0,000 mm 0,0 UV-I 0 W/m 16,2 C 18,0 C 0,0 km/h (0 Bft) 0,00 %
06.08.2015 02:25 17,9 C 90 % 1015,9 hPa 0,0 l/m 0,0 km/h (0 Bft) NO 45 0 min 0,000 mm 0,0 UV-I 0 W/m 16,2 C 17,9 C 0,0 km/h (0 Bft) 0,00 %
06.08.2015 02:30 17,8 C 90 % 1015,8 hPa 0,0 l/m 0,0 km/h (0 Bft) NO 50 0 min 0,000 mm 0,0 UV-I 0 W/m 16,1 C 17,8 C 0,0 km/h (0 Bft) 0,00 %
06.08.2015 02:35 17,8 C 90 % 1015,8 hPa 0,0 l/m 0,0 km/h (0 Bft) NO 49 0 min 0,000 mm 0,0 UV-I 0 W/m 16,1 C 17,8 C 0,0 km/h (0 Bft) 0,00 %
06.08.2015 02:40 17,8 C 91 % 1016,0 hPa 0,0 l/m 0,0 km/h (0 Bft) NO 45 0 min 0,000 mm 0,0 UV-I 0 W/m 16,3 C 17,8 C 0,0 km/h (0 Bft) 0,00 %
06.08.2015 02:45 17,7 C 91 % 1015,6 hPa 0,0 l/m 0,0 km/h (0 Bft) NO 45 0 min 0,000 mm 0,0 UV-I 0 W/m 16,2 C 17,7 C 0,0 km/h (0 Bft) 0,00 %
06.08.2015 02:50 17,7 C 91 % 1015,8 hPa 0,0 l/m 0,0 km/h (0 Bft) NO 45 0 min 0,000 mm 0,0 UV-I 0 W/m 16,2 C 17,7 C 0,0 km/h (0 Bft) 0,00 %
06.08.2015 02:55 17,7 C 91 % 1015,9 hPa 0,0 l/m 0,0 km/h (0 Bft) NO 44 0 min 0,000 mm 0,0 UV-I 0 W/m 16,2 C 17,7 C 0,0 km/h (0 Bft) 0,00 %
06.08.2015 03:00 17,6 C 92 % 1015,9 hPa 0,0 l/m 0,0 km/h (0 Bft) NO 44 0 min 0,000 mm 0,0 UV-I 0 W/m 16,3 C 17,6 C 0,0 km/h (0 Bft) 0,00 %
06.08.2015 03:05 17,6 C 92 % 1015,8 hPa 0,0 l/m 0,0 km/h (0 Bft) NO 52 0 min 0,000 mm 0,0 UV-I 0 W/m 16,3 C 17,6 C 0,0 km/h (0 Bft) 0,00 %
06.08.2015 03:10 17,5 C 92 % 1015,8 hPa 0,0 l/m 0,0 km/h (0 Bft) NO 40 0 min 0,000 mm 0,0 UV-I 0 W/m 16,2 C 17,5 C 0,0 km/h (0 Bft) 0,00 %
06.08.2015 03:15 17,4 C 92 % 1015,9 hPa 0,0 l/m 0,0 km/h (0 Bft) NO 40 0 min 0,000 mm 0,0 UV-I 0 W/m 16,1 C 17,4 C 0,0 km/h (0 Bft) 0,00 %
06.08.2015 03:20 17,4 C 92 % 1015,9 hPa 0,0 l/m 0,0 km/h (0 Bft) O-NO 68 0 min 0,000 mm 0,0 UV-I 0 W/m 16,1 C 17,4 C 0,0 km/h (0 Bft) 0,00 %
06.08.2015 03:25 17,3 C 92 % 1016,0 hPa 0,0 l/m 0,0 km/h (0 Bft) O-NO 68 0 min 0,000 mm 0,0 UV-I 0 W/m 16,0 C 17,3 C 0,0 km/h (0 Bft) 0,00 %
06.08.2015 03:30 17,3 C 92 % 1016,0 hPa 0,0 l/m 0,0 km/h (0 Bft) O-NO 68 0 min 0,000 mm 0,0 UV-I 0 W/m 16,0 C 17,3 C 0,0 km/h (0 Bft) 0,00 %
06.08.2015 03:35 17,2 C 92 % 1016,1 hPa 0,0 l/m 0,0 km/h (0 Bft) O-NO 67 0 min 0,000 mm 0,0 UV-I 0 W/m 15,9 C 17,2 C 0,0 km/h (0 Bft) 0,00 %
06.08.2015 03:40 17,1 C 92 % 1016,1 hPa 0,0 l/m 0,0 km/h (0 Bft) O-NO 67 0 min 0,000 mm 0,0 UV-I 0 W/m 15,8 C 17,1 C 0,0 km/h (0 Bft) 0,00 %
06.08.2015 03:45 17,0 C 91 % 1016,0 hPa 0,0 l/m 0,0 km/h (0 Bft) N-NO 33 0 min 0,000 mm 0,0 UV-I 0 W/m 15,5 C 17,0 C 0,0 km/h (0 Bft) 0,00 %
06.08.2015 03:50 17,0 C 91 % 1016,0 hPa 0,0 l/m 0,0 km/h (0 Bft) N-NO 33 0 min 0,000 mm 0,0 UV-I 0 W/m 15,5 C 17,0 C 0,0 km/h (0 Bft) 0,00 %
06.08.2015 03:55 16,9 C 91 % 1016,1 hPa 0,0 l/m 0,0 km/h (0 Bft) N-NO 33 0 min 0,000 mm 0,0 UV-I 0 W/m 15,4 C 16,9 C 0,0 km/h (0 Bft) 0,00 %
06.08.2015 04:00 16,9 C 91 % 1015,9 hPa 0,0 l/m 0,0 km/h (0 Bft) N-NO 33 0 min 0,000 mm 0,0 UV-I 0 W/m 15,4 C 16,9 C 0,0 km/h (0 Bft) 0,00 %
06.08.2015 04:05 16,8 C 91 % 1016,1 hPa 0,0 l/m 0,0 km/h (0 Bft) N-NO 33 0 min 0,000 mm 0,0 UV-I 0 W/m 15,3 C 16,8 C 0,0 km/h (0 Bft) 0,00 %
06.08.2015 04:10 16,7 C 91 % 1016,3 hPa 0,0 l/m 0,0 km/h (0 Bft) N-NO 33 0 min 0,000 mm 0,0 UV-I 0 W/m 15,2 C 16,7 C 0,0 km/h (0 Bft) 0,00 %
06.08.2015 04:15 16,7 C 92 % 1016,3 hPa 0,0 l/m 0,0 km/h (0 Bft) N-NO 33 0 min 0,000 mm 0,0 UV-I 0 W/m 15,4 C 16,7 C 0,0 km/h (0 Bft) 0,00 %
06.08.2015 04:20 16,6 C 92 % 1016,1 hPa 0,0 l/m 0,0 km/h (0 Bft) N-NO 33 0 min 0,000 mm 0,0 UV-I 0 W/m 15,3 C 16,6 C 0,0 km/h (0 Bft) 0,00 %
06.08.2015 04:25 16,5 C 92 % 1015,9 hPa 0,0 l/m 0,0 km/h (0 Bft) N-NO 33 0 min 0,000 mm 0,0 UV-I 0 W/m 15,2 C 16,5 C 0,0 km/h (0 Bft) 0,00 %
06.08.2015 04:30 16,5 C 93 % 1016,0 hPa 0,0 l/m 0,0 km/h (0 Bft) N-NO 33 0 min 0,000 mm 0,0 UV-I 0 W/m 15,4 C 16,5 C 0,0 km/h (0 Bft) 0,00 %
06.08.2015 04:35 16,4 C 93 % 1016,1 hPa 0,0 l/m 0,0 km/h (0 Bft) N-NO 33 0 min 0,000 mm 0,0 UV-I 0 W/m 15,3 C 16,4 C 0,0 km/h (0 Bft) 0,00 %
06.08.2015 04:40 16,4 C 93 % 1016,0 hPa 0,0 l/m 0,0 km/h (0 Bft) N-NO 33 0 min 0,000 mm 0,0 UV-I 0 W/m 15,3 C 16,4 C 0,0 km/h (0 Bft) 0,00 %
06.08.2015 04:45 16,4 C 93 % 1016,1 hPa 0,0 l/m 0,0 km/h (0 Bft) O-NO 73 0 min 0,000 mm 0,0 UV-I 0 W/m 15,3 C 16,4 C 0,0 km/h (0 Bft) 0,00 %
06.08.2015 04:50 16,3 C 93 % 1016,3 hPa 0,0 l/m 0,0 km/h (0 Bft) O-NO 73 0 min 0,000 mm 0,0 UV-I 0 W/m 15,2 C 16,3 C 0,0 km/h (0 Bft) 0,00 %
06.08.2015 04:55 16,3 C 93 % 1016,2 hPa 0,0 l/m 0,0 km/h (0 Bft) O-NO 73 0 min 0,000 mm 0,0 UV-I 0 W/m 15,2 C 16,3 C 0,0 km/h (0 Bft) 0,00 %
06.08.2015 05:00 16,3 C 93 % 1016,3 hPa 0,0 l/m 0,0 km/h (0 Bft) O-NO 73 0 min 0,000 mm 0,0 UV-I 0 W/m 15,2 C 16,3 C 0,0 km/h (0 Bft) 0,00 %
06.08.2015 05:05 16,3 C 93 % 1016,2 hPa 0,0 l/m 0,0 km/h (0 Bft) O-NO 73 0 min 0,000 mm 0,0 UV-I 0 W/m 15,2 C 16,3 C 0,0 km/h (0 Bft) 0,00 %
06.08.2015 05:10 16,2 C 93 % 1016,3 hPa 0,0 l/m 0,0 km/h (0 Bft) O-NO 73 0 min 0,000 mm 0,0 UV-I 0 W/m 15,1 C 16,2 C 0,0 km/h (0 Bft) 0,00 %
06.08.2015 05:15 16,2 C 93 % 1016,4 hPa 0,0 l/m 0,0 km/h (0 Bft) O-NO 73 0 min 0,000 mm 0,0 UV-I 0 W/m 15,1 C 16,2 C 0,0 km/h (0 Bft) 0,00 %
06.08.2015 05:20 16,1 C 94 % 1016,5 hPa 0,0 l/m 0,0 km/h (0 Bft) NO 36 0 min 0,000 mm 0,0 UV-I 0 W/m 15,1 C 16,1 C 0,0 km/h (0 Bft) 0,00 %
06.08.2015 05:25 16,0 C 94 % 1016,5 hPa 0,0 l/m 0,0 km/h (0 Bft) NO 36 0 min 0,000 mm 0,0 UV-I 0 W/m 15,0 C 16,0 C 0,0 km/h (0 Bft) 0,00 %
06.08.2015 05:30 16,0 C 94 % 1016,5 hPa 0,0 l/m 0,0 km/h (0 Bft) NO 36 0 min 0,000 mm 0,0 UV-I 0 W/m 15,0 C 16,0 C 0,0 km/h (0 Bft) 0,00 %
06.08.2015 05:35 15,9 C 94 % 1016,4 hPa 0,0 l/m 0,0 km/h (0 Bft) NO 36 0 min 0,000 mm 0,0 UV-I 0 W/m 14,9 C 15,9 C 0,0 km/h (0 Bft) 0,00 %
06.08.2015 05:40 15,9 C 94 % 1016,7 hPa 0,0 l/m 0,0 km/h (0 Bft) O-NO 59 0 min 0,000 mm 0,0 UV-I 0 W/m 14,9 C 15,9 C 0,0 km/h (0 Bft) 0,00 %
06.08.2015 05:45 15,9 C 94 % 1016,7 hPa 0,0 l/m 0,0 km/h (0 Bft) O-NO 59 0 min 0,000 mm 0,0 UV-I 0 W/m 14,9 C 15,9 C 0,0 km/h (0 Bft) 0,00 %
06.08.2015 05:50 15,9 C 94 % 1016,8 hPa 0,0 l/m 0,0 km/h (0 Bft) O-NO 59 0 min 0,000 mm 0,0 UV-I 4 W/m 14,9 C 15,9 C 0,0 km/h (0 Bft) 0,00 %
06.08.2015 05:55 16,0 C 94 % 1016,7 hPa 0,0 l/m 0,0 km/h (0 Bft) O-NO 59 0 min 0,000 mm 0,0 UV-I 8 W/m 15,0 C 16,0 C 0,0 km/h (0 Bft) 0,00 %
06.08.2015 06:00 16,1 C 94 % 1016,8 hPa 0,0 l/m 0,0 km/h (0 Bft) O-NO 59 5 min 0,000 mm 0,0 UV-I 18 W/m 15,1 C 16,1 C 0,0 km/h (0 Bft) 0,00 %
06.08.2015 06:05 16,0 C 94 % 1016,7 hPa 0,0 l/m 0,0 km/h (0 Bft) O-NO 59 5 min 0,000 mm 0,0 UV-I 25 W/m 15,0 C 16,0 C 0,0 km/h (0 Bft) 0,00 %
06.08.2015 06:10 16,0 C 94 % 1016,8 hPa 0,0 l/m 0,0 km/h (0 Bft) O-NO 59 5 min 0,000 mm 0,0 UV-I 53 W/m 15,0 C 16,0 C 0,0 km/h (0 Bft) 0,00 %
06.08.2015 06:15 16,1 C 94 % 1016,6 hPa 0,0 l/m 0,0 km/h (0 Bft) NO 46 5 min 0,000 mm 0,0 UV-I 76 W/m 15,1 C 16,1 C 0,0 km/h (0 Bft) 0,00 %
06.08.2015 06:20 16,4 C 94 % 1016,7 hPa 0,0 l/m 0,0 km/h (0 Bft) NO 46 5 min 0,000 mm 0,0 UV-I 96 W/m 15,4 C 16,4 C 0,0 km/h (0 Bft) 0,00 %
06.08.2015 06:25 16,8 C 94 % 1016,8 hPa 0,0 l/m 0,0 km/h (0 Bft) NO 46 5 min 0,000 mm 0,0 UV-I 116 W/m 15,8 C 16,8 C 0,0 km/h (0 Bft) 0,00 %
06.08.2015 06:30 17,3 C 92 % 1016,9 hPa 0,0 l/m 0,0 km/h (0 Bft) NO 46 5 min 0,000 mm 0,0 UV-I 137 W/m 16,0 C 17,3 C 0,0 km/h (0 Bft) 0,00 %
06.08.2015 06:35 18,0 C 90 % 1016,8 hPa 0,0 l/m 0,0 km/h (0 Bft) NO 46 5 min 0,000 mm 0,0 UV-I 156 W/m 16,3 C 18,0 C 0,0 km/h (0 Bft) 0,00 %
06.08.2015 06:40 18,7 C 85 % 1017,0 hPa 0,0 l/m 0,0 km/h (0 Bft) NO 46 5 min 0,000 mm 0,0 UV-I 177 W/m 16,1 C 18,7 C 0,0 km/h (0 Bft) 0,00 %
06.08.2015 06:45 19,3 C 82 % 1017,1 hPa 0,0 l/m 0,0 km/h (0 Bft) NO 46 5 min 0,000 mm 0,0 UV-I 195 W/m 16,1 C 19,3 C 0,0 km/h (0 Bft) 0,00 %
06.08.2015 06:50 19,8 C 77 % 1016,9 hPa 0,0 l/m 0,0 km/h (0 Bft) N 356 5 min 0,000 mm 0,0 UV-I 211 W/m 15,6 C 19,8 C 0,0 km/h (0 Bft) 0,00 %
06.08.2015 06:55 20,1 C 76 % 1017,1 hPa 0,0 l/m 0,0 km/h (0 Bft) N 356 5 min 0,000 mm 0,0 UV-I 228 W/m 15,7 C 20,1 C 0,0 km/h (0 Bft) 0,00 %
06.08.2015 07:00 20,2 C 76 % 1017,1 hPa 0,0 l/m 0,0 km/h (0 Bft) N 356 5 min 0,000 mm 0,0 UV-I 240 W/m 15,8 C 20,2 C 0,0 km/h (0 Bft) 0,00 %
06.08.2015 07:05 20,5 C 74 % 1017,0 hPa 0,0 l/m 0,0 km/h (0 Bft) O-NO 65 5 min 0,000 mm 1,0 UV-I 256 W/m 15,7 C 20,5 C 0,0 km/h (0 Bft) 0,00 %
06.08.2015 07:10 21,0 C 72 % 1017,2 hPa 0,0 l/m 0,0 km/h (0 Bft) O-NO 65 5 min 0,000 mm 1,0 UV-I 266 W/m 15,8 C 21,0 C 0,0 km/h (0 Bft) 0,00 %
06.08.2015 07:15 21,8 C 72 % 1017,2 hPa 0,0 l/m 0,0 km/h (0 Bft) NO 34 5 min 0,000 mm 1,0 UV-I 274 W/m 16,5 C 21,8 C 0,0 km/h (0 Bft) 0,00 %
06.08.2015 07:20 22,5 C 68 % 1017,2 hPa 0,0 l/m 0,0 km/h (0 Bft) NO 34 5 min 0,000 mm 1,0 UV-I 278 W/m 16,3 C 22,5 C 0,0 km/h (0 Bft) 0,00 %
06.08.2015 07:25 23,2 C 67 % 1017,3 hPa 0,0 l/m 0,0 km/h (0 Bft) NO 35 5 min 0,000 mm 1,0 UV-I 283 W/m 16,7 C 23,2 C 0,0 km/h (0 Bft) 0,00 %
06.08.2015 07:30 23,7 C 64 % 1017,2 hPa 0,0 l/m 0,0 km/h (0 Bft) NO 51 5 min 0,000 mm 1,0 UV-I 286 W/m 16,5 C 23,7 C 0,0 km/h (0 Bft) 0,00 %
06.08.2015 07:35 24,3 C 63 % 1017,1 hPa 0,0 l/m 0,0 km/h (0 Bft) NO 50 5 min 0,000 mm 1,0 UV-I 287 W/m 16,8 C 24,3 C 0,0 km/h (0 Bft) 0,00 %
06.08.2015 07:40 24,6 C 61 % 1017,3 hPa 0,0 l/m 0,0 km/h (0 Bft) O-NO 60 5 min 0,000 mm 1,0 UV-I 289 W/m 16,6 C 24,6 C 0,0 km/h (0 Bft) 0,00 %
06.08.2015 07:45 24,9 C 60 % 1017,3 hPa 0,0 l/m 0,0 km/h (0 Bft) O-NO 64 5 min 0,000 mm 1,0 UV-I 291 W/m 16,6 C 24,9 C 0,0 km/h (0 Bft) 0,00 %
06.08.2015 07:50 25,3 C 60 % 1017,3 hPa 0,0 l/m 0,0 km/h (0 Bft) NO 56 5 min 0,000 mm 1,0 UV-I 293 W/m 17,0 C 25,3 C 0,0 km/h (0 Bft) 0,00 %
06.08.2015 07:55 25,6 C 58 % 1017,4 hPa 0,0 l/m 0,0 km/h (0 Bft) N 350 5 min 0,000 mm 1,0 UV-I 296 W/m 16,7 C 25,6 C 0,0 km/h (0 Bft) 0,00 %
06.08.2015 08:00 25,7 C 59 % 1017,2 hPa 0,0 l/m 0,0 km/h (0 Bft) N-NW 348 5 min 0,000 mm 1,0 UV-I 299 W/m 17,1 C 25,7 C 0,0 km/h (0 Bft) 0,00 %
06.08.2015 08:05 25,5 C 60 % 1017,4 hPa 0,0 l/m 0,0 km/h (0 Bft) NO 55 5 min 0,000 mm 1,0 UV-I 302 W/m 17,2 C 25,5 C 0,0 km/h (0 Bft) 0,00 %
06.08.2015 08:10 25,3 C 60 % 1017,4 hPa 0,0 l/m 0,0 km/h (0 Bft) N-NO 29 5 min 0,000 mm 1,0 UV-I 307 W/m 17,0 C 25,3 C 0,0 km/h (0 Bft) 0,00 %
06.08.2015 08:15 25,5 C 59 % 1017,6 hPa 0,0 l/m 0,0 km/h (0 Bft) NO 48 5 min 0,000 mm 1,0 UV-I 316 W/m 16,9 C 25,5 C 0,0 km/h (0 Bft) 0,00 %
06.08.2015 08:20 25,8 C 56 % 1017,6 hPa 0,0 l/m 0,0 km/h (0 Bft) NO 44 5 min 0,000 mm 1,0 UV-I 322 W/m 16,3 C 25,8 C 0,0 km/h (0 Bft) 0,00 %
06.08.2015 08:25 26,2 C 56 % 1017,5 hPa 0,0 l/m 0,0 km/h (0 Bft) N-NO 12 5 min 0,000 mm 1,0 UV-I 330 W/m 16,7 C 26,2 C 0,0 km/h (0 Bft) 0,00 %
06.08.2015 08:30 26,5 C 56 % 1017,5 hPa 0,0 l/m 0,0 km/h (0 Bft) N 349 5 min 0,000 mm 1,0 UV-I 334 W/m 17,0 C 26,5 C 0,0 km/h (0 Bft) 0,00 %
06.08.2015 08:35 26,6 C 57 % 1017,5 hPa 0,0 l/m 0,0 km/h (0 Bft) NO 52 5 min 0,000 mm 1,0 UV-I 343 W/m 17,4 C 26,6 C 0,0 km/h (0 Bft) 0,00 %
06.08.2015 08:40 26,7 C 55 % 1017,6 hPa 0,0 l/m 0,0 km/h (0 Bft) NO 42 5 min 0,000 mm 1,0 UV-I 352 W/m 16,9 C 26,7 C 0,0 km/h (0 Bft) 0,00 %
06.08.2015 08:45 26,8 C 53 % 1017,7 hPa 0,0 l/m 0,0 km/h (0 Bft) NO 50 5 min 0,000 mm 1,0 UV-I 362 W/m 16,4 C 26,8 C 0,0 km/h (0 Bft) 0,00 %
06.08.2015 08:50 27,0 C 53 % 1017,8 hPa 0,0 l/m 0,0 km/h (0 Bft) N 4 5 min 0,000 mm 1,0 UV-I 370 W/m 16,6 C 27,0 C 0,0 km/h (0 Bft) 0,00 %
06.08.2015 08:55 27,0 C 54 % 1017,8 hPa 0,0 l/m 1,4 km/h (1 Bft) W-SW 256 5 min 0,000 mm 1,0 UV-I 379 W/m 16,9 C 27,0 C 4,0 km/h (1 Bft) 0,00 %
06.08.2015 09:00 27,0 C 53 % 1017,8 hPa 0,0 l/m 0,0 km/h (0 Bft) N 352 5 min 0,000 mm 1,0 UV-I 387 W/m 16,6 C 27,0 C 0,0 km/h (0 Bft) 0,00 %
06.08.2015 09:05 26,9 C 54 % 1017,9 hPa 0,0 l/m 0,0 km/h (0 Bft) N-NW 338 5 min 0,000 mm 2,0 UV-I 396 W/m 16,8 C 26,9 C 0,0 km/h (0 Bft) 0,00 %
06.08.2015 09:10 27,0 C 52 % 1017,8 hPa 0,0 l/m 0,0 km/h (0 Bft) W-SW 256 5 min 0,000 mm 2,0 UV-I 410 W/m 16,3 C 27,0 C 0,0 km/h (0 Bft) 0,00 %
06.08.2015 09:15 27,4 C 51 % 1017,8 hPa 0,0 l/m 0,0 km/h (0 Bft) N-NO 18 5 min 0,000 mm 2,0 UV-I 418 W/m 16,3 C 27,4 C 0,0 km/h (0 Bft) 0,00 %
06.08.2015 09:20 27,9 C 49 % 1017,9 hPa 0,0 l/m 0,0 km/h (0 Bft) N-NW 346 5 min 0,000 mm 2,0 UV-I 430 W/m 16,2 C 27,9 C 0,0 km/h (0 Bft) 0,00 %
06.08.2015 09:25 28,1 C 50 % 1017,8 hPa 0,0 l/m 0,0 km/h (0 Bft) NO 51 5 min 0,000 mm 2,0 UV-I 443 W/m 16,7 C 28,1 C 0,0 km/h (0 Bft) 0,00 %
06.08.2015 09:30 28,4 C 48 % 1017,8 hPa 0,0 l/m 0,0 km/h (0 Bft) NO 38 5 min 0,000 mm 2,0 UV-I 456 W/m 16,3 C 28,4 C 0,0 km/h (0 Bft) 0,00 %
06.08.2015 09:35 28,8 C 47 % 1017,8 hPa 0,0 l/m 0,0 km/h (0 Bft) N-NO 30 5 min 0,000 mm 2,0 UV-I 466 W/m 16,3 C 28,8 C 0,0 km/h (0 Bft) 0,00 %
06.08.2015 09:40 29,0 C 47 % 1017,8 hPa 0,0 l/m 0,0 km/h (0 Bft) NO 39 5 min 0,000 mm 2,0 UV-I 479 W/m 16,5 C 29,0 C 0,0 km/h (0 Bft) 0,00 %
06.08.2015 09:45 29,1 C 47 % 1017,9 hPa 0,0 l/m 0,0 km/h (0 Bft) NO 46 5 min 0,000 mm 2,0 UV-I 491 W/m 16,6 C 29,1 C 0,0 km/h (0 Bft) 0,00 %
06.08.2015 09:50 29,0 C 47 % 1017,7 hPa 0,0 l/m 0,0 km/h (0 Bft) NO 37 5 min 0,000 mm 2,0 UV-I 502 W/m 16,5 C 29,0 C 0,0 km/h (0 Bft) 0,00 %
06.08.2015 09:55 29,3 C 46 % 1017,9 hPa 0,0 l/m 0,0 km/h (0 Bft) O-NO 75 5 min 0,000 mm 2,0 UV-I 519 W/m 16,5 C 29,3 C 0,0 km/h (0 Bft) 0,00 %
06.08.2015 10:00 29,6 C 44 % 1017,9 hPa 0,0 l/m 0,0 km/h (0 Bft) N-NO 32 5 min 0,000 mm 2,0 UV-I 530 W/m 16,0 C 29,6 C 0,0 km/h (0 Bft) 0,00 %
06.08.2015 10:05 29,9 C 44 % 1017,9 hPa 0,0 l/m 0,0 km/h (0 Bft) NO 38 5 min 0,000 mm 2,0 UV-I 545 W/m 16,3 C 29,9 C 0,0 km/h (0 Bft) 0,00 %
06.08.2015 10:10 30,0 C 45 % 1017,9 hPa 0,0 l/m 0,4 km/h (0 Bft) NO 36 5 min 0,000 mm 2,0 UV-I 554 W/m 16,7 C 30,0 C 4,0 km/h (1 Bft) 0,00 %
06.08.2015 10:15 30,1 C 43 % 1017,7 hPa 0,0 l/m 0,0 km/h (0 Bft) O-NO 60 5 min 0,000 mm 2,0 UV-I 568 W/m 16,1 C 30,1 C 0,0 km/h (0 Bft) 0,00 %
06.08.2015 10:20 30,3 C 46 % 1017,8 hPa 0,0 l/m 0,0 km/h (0 Bft) N 358 5 min 0,000 mm 2,0 UV-I 565 W/m 17,4 C 30,3 C 0,0 km/h (0 Bft) 0,00 %
06.08.2015 10:25 30,4 C 43 % 1017,7 hPa 0,0 l/m 1,4 km/h (1 Bft) N 349 5 min 0,000 mm 2,0 UV-I 596 W/m 16,4 C 30,4 C 4,0 km/h (1 Bft) 0,00 %
06.08.2015 10:30 30,4 C 45 % 1017,7 hPa 0,0 l/m 0,0 km/h (0 Bft) NO 36 5 min 0,000 mm 3,0 UV-I 609 W/m 17,1 C 30,4 C 0,0 km/h (0 Bft) 0,00 %
06.08.2015 10:35 30,7 C 43 % 1017,7 hPa 0,0 l/m 0,7 km/h (0 Bft) NW 305 5 min 0,000 mm 3,0 UV-I 626 W/m 16,7 C 30,7 C 4,0 km/h (1 Bft) 0,00 %
06.08.2015 10:40 31,0 C 41 % 1017,8 hPa 0,0 l/m 4,3 km/h (1 Bft) N-NW 346 5 min 0,000 mm 3,0 UV-I 637 W/m 16,2 C 31,0 C 7,9 km/h (2 Bft) 0,00 %
06.08.2015 10:45 31,1 C 43 % 1017,9 hPa 0,0 l/m 0,0 km/h (0 Bft) N 356 5 min 0,000 mm 3,0 UV-I 646 W/m 17,0 C 31,1 C 0,0 km/h (0 Bft) 0,00 %
06.08.2015 10:50 30,9 C 44 % 1017,8 hPa 0,0 l/m 0,0 km/h (0 Bft) NO 40 5 min 0,000 mm 3,0 UV-I 664 W/m 17,2 C 30,9 C 0,0 km/h (0 Bft) 0,00 %
06.08.2015 10:55 30,8 C 43 % 1017,7 hPa 0,0 l/m 0,0 km/h (0 Bft) NO 37 5 min 0,000 mm 3,0 UV-I 684 W/m 16,7 C 30,8 C 0,0 km/h (0 Bft) 0,00 %
06.08.2015 11:00 30,9 C 42 % 1017,7 hPa 0,0 l/m 0,0 km/h (0 Bft) NO 42 5 min 0,000 mm 3,0 UV-I 694 W/m 16,5 C 30,9 C 0,0 km/h (0 Bft) 0,00 %
06.08.2015 11:05 30,9 C 43 % 1017,8 hPa 0,0 l/m 0,0 km/h (0 Bft) N-NW 340 5 min 0,000 mm 3,0 UV-I 711 W/m 16,8 C 30,9 C 0,0 km/h (0 Bft) 0,00 %
06.08.2015 11:10 30,9 C 42 % 1017,6 hPa 0,0 l/m 0,0 km/h (0 Bft) N-NO 22 5 min 0,000 mm 3,0 UV-I 724 W/m 16,5 C 30,9 C 0,0 km/h (0 Bft) 0,00 %
06.08.2015 11:15 31,3 C 41 % 1017,7 hPa 0,0 l/m 0,0 km/h (0 Bft) NO 42 5 min 0,000 mm 3,0 UV-I 738 W/m 16,4 C 31,3 C 0,0 km/h (0 Bft) 0,00 %
06.08.2015 11:20 31,8 C 42 % 1017,6 hPa 0,0 l/m 0,0 km/h (0 Bft) N-NO 25 5 min 0,000 mm 4,0 UV-I 750 W/m 17,3 C 31,8 C 0,0 km/h (0 Bft) 0,00 %
06.08.2015 11:25 32,2 C 42 % 1017,8 hPa 0,0 l/m 4,0 km/h (1 Bft) N-NW 330 5 min 0,000 mm 4,0 UV-I 757 W/m 17,6 C 32,2 C 7,9 km/h (2 Bft) 0,00 %
06.08.2015 11:30 32,2 C 42 % 1017,7 hPa 0,0 l/m 0,4 km/h (0 Bft) W-NW 303 5 min 0,000 mm 4,0 UV-I 760 W/m 17,6 C 32,2 C 4,0 km/h (1 Bft) 0,00 %
06.08.2015 11:35 32,0 C 42 % 1017,8 hPa 0,0 l/m 0,0 km/h (0 Bft) NO 55 5 min 0,000 mm 4,0 UV-I 771 W/m 17,4 C 32,0 C 0,0 km/h (0 Bft) 0,00 %
06.08.2015 11:40 32,1 C 42 % 1017,7 hPa 0,0 l/m 0,0 km/h (0 Bft) O 91 5 min 0,000 mm 4,0 UV-I 782 W/m 17,5 C 32,1 C 0,0 km/h (0 Bft) 0,00 %
06.08.2015 11:45 32,3 C 40 % 1017,7 hPa 0,0 l/m 0,4 km/h (0 Bft) N-NW 341 5 min 0,000 mm 4,0 UV-I 796 W/m 16,9 C 32,3 C 4,0 km/h (1 Bft) 0,00 %
06.08.2015 11:50 32,3 C 41 % 1017,8 hPa 0,0 l/m 0,0 km/h (0 Bft) O-NO 66 5 min 0,000 mm 4,0 UV-I 794 W/m 17,3 C 32,3 C 0,0 km/h (0 Bft) 0,00 %
06.08.2015 11:55 32,3 C 42 % 1017,5 hPa 0,0 l/m 0,0 km/h (0 Bft) NO 49 5 min 0,000 mm 4,0 UV-I 806 W/m 17,7 C 32,3 C 0,0 km/h (0 Bft) 0,00 %
06.08.2015 12:00 32,2 C 40 % 1017,7 hPa 0,0 l/m 0,0 km/h (0 Bft) O-NO 63 5 min 0,000 mm 4,0 UV-I 813 W/m 16,9 C 32,2 C 0,0 km/h (0 Bft) 0,00 %
06.08.2015 12:05 32,3 C 40 % 1017,6 hPa 0,0 l/m 0,0 km/h (0 Bft) NW 325 5 min 0,000 mm 4,0 UV-I 820 W/m 16,9 C 32,3 C 0,0 km/h (0 Bft) 0,00 %
06.08.2015 12:10 32,4 C 43 % 1017,4 hPa 0,0 l/m 0,0 km/h (0 Bft) N-NO 31 5 min 0,000 mm 4,0 UV-I 830 W/m 18,2 C 32,4 C 0,0 km/h (0 Bft) 0,00 %
06.08.2015 12:15 32,2 C 41 % 1017,5 hPa 0,0 l/m 4,0 km/h (1 Bft) NW 307 5 min 0,000 mm 4,0 UV-I 831 W/m 17,2 C 32,2 C 7,9 km/h (2 Bft) 0,00 %
06.08.2015 12:20 32,0 C 42 % 1017,4 hPa 0,0 l/m 0,0 km/h (0 Bft) N-NW 347 5 min 0,000 mm 4,0 UV-I 831 W/m 17,4 C 32,0 C 0,0 km/h (0 Bft) 0,00 %
06.08.2015 12:25 32,0 C 42 % 1017,4 hPa 0,0 l/m 0,0 km/h (0 Bft) NO 42 5 min 0,000 mm 5,0 UV-I 841 W/m 17,4 C 32,0 C 0,0 km/h (0 Bft) 0,00 %
06.08.2015 12:30 32,1 C 42 % 1017,5 hPa 0,0 l/m 0,0 km/h (0 Bft) NO 38 5 min 0,000 mm 5,0 UV-I 842 W/m 17,5 C 32,1 C 0,0 km/h (0 Bft) 0,00 %
06.08.2015 12:35 32,1 C 42 % 1017,5 hPa 0,0 l/m 8,3 km/h (2 Bft) O-SO 122 5 min 0,000 mm 4,0 UV-I 834 W/m 17,5 C 32,0 C 11,9 km/h (2 Bft) 0,00 %
06.08.2015 12:40 32,0 C 39 % 1017,3 hPa 0,0 l/m 0,0 km/h (0 Bft) O 81 5 min 0,000 mm 5,0 UV-I 841 W/m 16,3 C 32,0 C 0,0 km/h (0 Bft) 0,00 %
06.08.2015 12:45 31,9 C 38 % 1017,4 hPa 0,0 l/m 2,2 km/h (1 Bft) NO 38 5 min 0,000 mm 5,0 UV-I 850 W/m 15,8 C 31,9 C 7,9 km/h (2 Bft) 0,00 %
06.08.2015 12:50 31,8 C 38 % 1017,6 hPa 0,0 l/m 0,7 km/h (0 Bft) N-NO 22 5 min 0,000 mm 5,0 UV-I 860 W/m 15,7 C 31,8 C 4,0 km/h (1 Bft) 0,00 %
06.08.2015 12:55 31,7 C 36 % 1017,4 hPa 0,0 l/m 0,0 km/h (0 Bft) NO 41 5 min 0,000 mm 5,0 UV-I 873 W/m 14,8 C 31,7 C 0,0 km/h (0 Bft) 0,00 %
06.08.2015 13:00 31,9 C 36 % 1017,3 hPa 0,0 l/m 0,0 km/h (0 Bft) O-NO 62 5 min 0,000 mm 5,0 UV-I 893 W/m 14,9 C 31,9 C 0,0 km/h (0 Bft) 0,00 %
06.08.2015 13:05 32,1 C 34 % 1017,2 hPa 0,0 l/m 0,0 km/h (0 Bft) NO 46 5 min 0,000 mm 5,0 UV-I 873 W/m 14,2 C 32,1 C 0,0 km/h (0 Bft) 0,00 %
06.08.2015 13:10 32,4 C 36 % 1017,2 hPa 0,0 l/m 0,0 km/h (0 Bft) NO 37 5 min 0,000 mm 5,0 UV-I 896 W/m 15,4 C 32,4 C 0,0 km/h (0 Bft) 0,00 %
06.08.2015 13:15 32,6 C 36 % 1017,3 hPa 0,0 l/m 0,0 km/h (0 Bft) NO 41 5 min 0,000 mm 5,0 UV-I 892 W/m 15,6 C 32,6 C 0,0 km/h (0 Bft) 0,00 %
06.08.2015 13:20 32,7 C 34 % 1017,2 hPa 0,0 l/m 0,0 km/h (0 Bft) N 352 5 min 0,000 mm 5,0 UV-I 857 W/m 14,8 C 32,7 C 0,0 km/h (0 Bft) 0,00 %
06.08.2015 13:25 32,9 C 33 % 1017,2 hPa 0,0 l/m 1,8 km/h (1 Bft) W-NW 300 5 min 0,000 mm 5,0 UV-I 886 W/m 14,5 C 32,9 C 4,0 km/h (1 Bft) 0,00 %
06.08.2015 13:30 33,1 C 34 % 1017,1 hPa 0,0 l/m 0,0 km/h (0 Bft) N-NO 18 5 min 0,000 mm 5,0 UV-I 907 W/m 15,1 C 33,1 C 0,0 km/h (0 Bft) 0,00 %
06.08.2015 13:35 33,2 C 38 % 1017,1 hPa 0,0 l/m 0,0 km/h (0 Bft) N-NO 26 5 min 0,000 mm 4,0 UV-I 910 W/m 16,9 C 33,2 C 0,0 km/h (0 Bft) 0,00 %
06.08.2015 13:40 33,2 C 34 % 1017,2 hPa 0,0 l/m 0,0 km/h (0 Bft) N-NW 347 5 min 0,000 mm 4,0 UV-I 922 W/m 15,2 C 33,2 C 0,0 km/h (0 Bft) 0,00 %
06.08.2015 13:45 33,2 C 35 % 1016,8 hPa 0,0 l/m 4,3 km/h (1 Bft) O-SO 116 5 min 0,000 mm 4,0 UV-I 918 W/m 15,6 C 33,2 C 7,9 km/h (2 Bft) 0,00 %
06.08.2015 13:50 33,3 C 33 % 1017,0 hPa 0,0 l/m 0,7 km/h (0 Bft) SW 224 5 min 0,000 mm 4,0 UV-I 903 W/m 14,8 C 33,3 C 4,0 km/h (1 Bft) 0,00 %
06.08.2015 13:55 33,4 C 35 % 1017,0 hPa 0,0 l/m 0,0 km/h (0 Bft) O-NO 64 5 min 0,000 mm 4,0 UV-I 912 W/m 15,8 C 33,4 C 0,0 km/h (0 Bft) 0,00 %
06.08.2015 14:00 33,2 C 33 % 1017,2 hPa 0,0 l/m 1,4 km/h (1 Bft) N 11 5 min 0,000 mm 4,0 UV-I 916 W/m 14,7 C 33,2 C 4,0 km/h (1 Bft) 0,00 %
06.08.2015 14:05 33,1 C 33 % 1017,0 hPa 0,0 l/m 0,0 km/h (0 Bft) N-NO 12 5 min 0,000 mm 4,0 UV-I 932 W/m 14,6 C 33,1 C 0,0 km/h (0 Bft) 0,00 %
06.08.2015 14:10 33,2 C 32 % 1016,8 hPa 0,0 l/m 1,4 km/h (1 Bft) W 263 5 min 0,000 mm 4,0 UV-I 932 W/m 14,2 C 33,2 C 4,0 km/h (1 Bft) 0,00 %
06.08.2015 14:15 33,3 C 33 % 1016,9 hPa 0,0 l/m 6,5 km/h (2 Bft) N-NW 335 5 min 0,000 mm 4,0 UV-I 931 W/m 14,8 C 33,3 C 7,9 km/h (2 Bft) 0,00 %
06.08.2015 14:20 33,4 C 31 % 1016,6 hPa 0,0 l/m 0,0 km/h (0 Bft) N-NO 25 5 min 0,000 mm 4,0 UV-I 942 W/m 13,9 C 33,4 C 0,0 km/h (0 Bft) 0,00 %
06.08.2015 14:25 33,5 C 31 % 1016,8 hPa 0,0 l/m 0,0 km/h (0 Bft) O 86 5 min 0,000 mm 4,0 UV-I 956 W/m 14,0 C 33,5 C 0,0 km/h (0 Bft) 0,00 %
06.08.2015 14:30 33,8 C 30 % 1016,7 hPa 0,0 l/m 0,7 km/h (0 Bft) NO 51 5 min 0,000 mm 4,0 UV-I 971 W/m 13,8 C 33,8 C 4,0 km/h (1 Bft) 0,00 %
06.08.2015 14:35 34,1 C 27 % 1016,7 hPa 0,0 l/m 0,0 km/h (0 Bft) NW 321 5 min 0,000 mm 4,0 UV-I 903 W/m 12,4 C 34,1 C 0,0 km/h (0 Bft) 0,00 %
06.08.2015 14:40 34,4 C 30 % 1016,7 hPa 0,0 l/m 0,0 km/h (0 Bft) NO 40 5 min 0,000 mm 4,0 UV-I 966 W/m 14,3 C 34,4 C 0,0 km/h (0 Bft) 0,00 %
06.08.2015 14:45 34,6 C 30 % 1016,7 hPa 0,0 l/m 0,0 km/h (0 Bft) NO 36 5 min 0,000 mm 4,0 UV-I 965 W/m 14,5 C 34,6 C 0,0 km/h (0 Bft) 0,00 %
06.08.2015 14:50 34,6 C 27 % 1016,7 hPa 0,0 l/m 0,4 km/h (0 Bft) O 92 5 min 0,000 mm 4,0 UV-I 969 W/m 12,8 C 34,6 C 4,0 km/h (1 Bft) 0,00 %
06.08.2015 14:55 34,3 C 30 % 1016,6 hPa 0,0 l/m 5,4 km/h (1 Bft) W 273 5 min 0,000 mm 4,0 UV-I 949 W/m 14,2 C 34,3 C 7,9 km/h (2 Bft) 0,00 %
06.08.2015 15:00 34,1 C 30 % 1016,6 hPa 0,0 l/m 0,0 km/h (0 Bft) N-NO 20 5 min 0,000 mm 4,0 UV-I 950 W/m 14,0 C 34,1 C 0,0 km/h (0 Bft) 0,00 %
06.08.2015 15:06 34,2 C 30 % 1016,5 hPa 0,0 l/m 0,0 km/h (0 Bft) NW 310 6 min 0,000 mm 4,0 UV-I 975 W/m 14,1 C 34,2 C 0,0 km/h (0 Bft) 0,00 %
06.08.2015 15:11 34,4 C 23 % 1016,4 hPa 0,0 l/m 2,9 km/h (1 Bft) N-NW 342 5 min 0,000 mm 4,0 UV-I 968 W/m 10,2 C 34,4 C 4,0 km/h (1 Bft) 0,00 %
06.08.2015 15:16 34,6 C 24 % 1016,4 hPa 0,0 l/m 0,0 km/h (0 Bft) NO 44 5 min 0,000 mm 4,0 UV-I 952 W/m 11,0 C 34,6 C 0,0 km/h (0 Bft) 0,00 %
06.08.2015 15:21 34,8 C 23 % 1016,3 hPa 0,0 l/m 0,0 km/h (0 Bft) N-NO 18 5 min 0,000 mm 3,0 UV-I 962 W/m 10,6 C 34,8 C 0,0 km/h (0 Bft) 0,00 %
06.08.2015 15:26 34,9 C 22 % 1016,4 hPa 0,0 l/m 0,0 km/h (0 Bft) NO 56 5 min 0,000 mm 3,0 UV-I 969 W/m 10,0 C 34,9 C 0,0 km/h (0 Bft) 0,00 %
06.08.2015 15:31 34,9 C 23 % 1016,3 hPa 0,0 l/m 0,4 km/h (0 Bft) N 351 5 min 0,000 mm 3,0 UV-I 948 W/m 10,7 C 34,9 C 4,0 km/h (1 Bft) 0,00 %
06.08.2015 15:36 35,0 C 22 % 1016,4 hPa 0,0 l/m 4,7 km/h (1 Bft) N-NW 335 5 min 0,000 mm 3,0 UV-I 945 W/m 10,1 C 35,0 C 7,9 km/h (2 Bft) 0,00 %
06.08.2015 15:41 35,1 C 23 % 1016,2 hPa 0,0 l/m 0,0 km/h (0 Bft) O 89 5 min 0,000 mm 3,0 UV-I 954 W/m 10,8 C 35,1 C 0,0 km/h (0 Bft) 0,00 %
06.08.2015 15:46 35,0 C 24 % 1016,0 hPa 0,0 l/m 0,0 km/h (0 Bft) N 354 5 min 0,000 mm 3,0 UV-I 952 W/m 11,4 C 35,0 C 0,0 km/h (0 Bft) 0,00 %
06.08.2015 15:51 34,9 C 26 % 1016,1 hPa 0,0 l/m 0,0 km/h (0 Bft) N-NO 12 5 min 0,000 mm 3,0 UV-I 945 W/m 12,5 C 34,9 C 0,0 km/h (0 Bft) 0,00 %
06.08.2015 15:56 34,7 C 24 % 1016,4 hPa 0,0 l/m 0,0 km/h (0 Bft) N-NW 340 5 min 0,000 mm 3,0 UV-I 936 W/m 11,1 C 34,7 C 0,0 km/h (0 Bft) 0,00 %
06.08.2015 16:01 34,8 C 23 % 1016,3 hPa 0,0 l/m 0,0 km/h (0 Bft) N-NW 329 5 min 0,000 mm 3,0 UV-I 932 W/m 10,6 C 34,8 C 0,0 km/h (0 Bft) 0,00 %
06.08.2015 16:06 34,8 C 24 % 1016,1 hPa 0,0 l/m 1,8 km/h (1 Bft) N 358 5 min 0,000 mm 3,0 UV-I 931 W/m 11,2 C 34,8 C 4,0 km/h (1 Bft) 0,00 %
06.08.2015 16:11 34,8 C 24 % 1016,0 hPa 0,0 l/m 0,0 km/h (0 Bft) NO 40 5 min 0,000 mm 3,0 UV-I 939 W/m 11,2 C 34,8 C 0,0 km/h (0 Bft) 0,00 %
06.08.2015 16:16 34,6 C 22 % 1016,0 hPa 0,0 l/m 0,0 km/h (0 Bft) N-NO 19 5 min 0,000 mm 2,0 UV-I 938 W/m 9,7 C 34,6 C 0,0 km/h (0 Bft) 0,00 %
06.08.2015 16:21 34,6 C 24 % 1016,1 hPa 0,0 l/m 1,8 km/h (1 Bft) NW 323 5 min 0,000 mm 2,0 UV-I 913 W/m 11,0 C 34,6 C 4,0 km/h (1 Bft) 0,00 %
06.08.2015 16:26 34,7 C 27 % 1016,1 hPa 0,0 l/m 2,2 km/h (1 Bft) N 10 5 min 0,000 mm 1,0 UV-I 911 W/m 12,9 C 34,7 C 4,0 km/h (1 Bft) 0,00 %
06.08.2015 16:31 34,8 C 25 % 1016,1 hPa 0,0 l/m 0,0 km/h (0 Bft) O-NO 65 5 min 0,000 mm 1,0 UV-I 906 W/m 11,8 C 34,8 C 0,0 km/h (0 Bft) 0,00 %
06.08.2015 16:36 35,0 C 22 % 1016,0 hPa 0,0 l/m 1,4 km/h (1 Bft) N 350 5 min 0,000 mm 1,0 UV-I 911 W/m 10,1 C 35,0 C 4,0 km/h (1 Bft) 0,00 %
06.08.2015 16:41 35,2 C 25 % 1016,1 hPa 0,0 l/m 0,7 km/h (0 Bft) N 352 5 min 0,000 mm 1,0 UV-I 916 W/m 12,2 C 35,2 C 4,0 km/h (1 Bft) 0,00 %
06.08.2015 16:46 35,5 C 21 % 1015,9 hPa 0,0 l/m 0,0 km/h (0 Bft) N 352 5 min 0,000 mm 1,0 UV-I 911 W/m 9,8 C 35,5 C 0,0 km/h (0 Bft) 0,00 %
06.08.2015 16:51 35,6 C 22 % 1016,0 hPa 0,0 l/m 0,0 km/h (0 Bft) N-NO 21 5 min 0,000 mm 1,0 UV-I 896 W/m 10,6 C 35,6 C 0,0 km/h (0 Bft) 0,00 %
06.08.2015 16:56 35,3 C 22 % 1015,9 hPa 0,0 l/m 0,4 km/h (0 Bft) N-NW 342 5 min 0,000 mm 1,0 UV-I 885 W/m 10,3 C 35,3 C 4,0 km/h (1 Bft) 0,00 %
06.08.2015 17:01 35,0 C 25 % 1015,8 hPa 0,0 l/m 4,7 km/h (1 Bft) N-NW 342 5 min 0,000 mm 1,0 UV-I 875 W/m 12,0 C 35,0 C 7,9 km/h (2 Bft) 0,00 %
06.08.2015 17:06 34,8 C 25 % 1015,8 hPa 0,0 l/m 0,0 km/h (0 Bft) N 7 5 min 0,000 mm 1,0 UV-I 867 W/m 11,8 C 34,8 C 0,0 km/h (0 Bft) 0,00 %
06.08.2015 17:11 34,6 C 23 % 1015,7 hPa 0,0 l/m 0,0 km/h (0 Bft) O-NO 60 5 min 0,000 mm 1,0 UV-I 874 W/m 10,4 C 34,6 C 0,0 km/h (0 Bft) 0,00 %
06.08.2015 17:16 34,8 C 22 % 1015,7 hPa 0,0 l/m 0,7 km/h (0 Bft) NW 313 5 min 0,000 mm 1,0 UV-I 877 W/m 9,9 C 34,8 C 4,0 km/h (1 Bft) 0,00 %
06.08.2015 17:21 35,0 C 21 % 1015,7 hPa 0,0 l/m 0,0 km/h (0 Bft) N-NW 344 5 min 0,000 mm 1,0 UV-I 868 W/m 9,4 C 35,0 C 0,0 km/h (0 Bft) 0,00 %
06.08.2015 17:26 35,2 C 22 % 1015,7 hPa 0,0 l/m 0,0 km/h (0 Bft) N-NW 344 5 min 0,000 mm 1,0 UV-I 878 W/m 10,2 C 35,2 C 0,0 km/h (0 Bft) 0,00 %
06.08.2015 17:31 35,3 C 21 % 1015,7 hPa 0,0 l/m 0,0 km/h (0 Bft) N-NO 33 5 min 0,000 mm 1,0 UV-I 875 W/m 9,6 C 35,3 C 0,0 km/h (0 Bft) 0,00 %
06.08.2015 17:36 35,3 C 22 % 1015,6 hPa 0,0 l/m 0,0 km/h (0 Bft) N 7 5 min 0,000 mm 1,0 UV-I 855 W/m 10,3 C 35,3 C 0,0 km/h (0 Bft) 0,00 %
06.08.2015 17:41 35,1 C 24 % 1015,6 hPa 0,0 l/m 0,4 km/h (0 Bft) NW 321 5 min 0,000 mm 1,0 UV-I 844 W/m 11,5 C 35,1 C 4,0 km/h (1 Bft) 0,00 %
06.08.2015 17:46 34,9 C 22 % 1015,5 hPa 0,0 l/m 0,4 km/h (0 Bft) N 353 5 min 0,000 mm 1,0 UV-I 834 W/m 10,0 C 34,9 C 4,0 km/h (1 Bft) 0,00 %
06.08.2015 17:51 34,9 C 21 % 1015,7 hPa 0,0 l/m 0,0 km/h (0 Bft) NO 46 5 min 0,000 mm 1,0 UV-I 831 W/m 9,3 C 34,9 C 0,0 km/h (0 Bft) 0,00 %
06.08.2015 17:56 35,0 C 24 % 1015,6 hPa 0,0 l/m 0,0 km/h (0 Bft) N-NO 12 5 min 0,000 mm 1,0 UV-I 812 W/m 11,4 C 35,0 C 0,0 km/h (0 Bft) 0,00 %
06.08.2015 18:01 34,9 C 24 % 1015,5 hPa 0,0 l/m 0,0 km/h (0 Bft) O 87 5 min 0,000 mm 1,0 UV-I 740 W/m 11,3 C 34,9 C 0,0 km/h (0 Bft) 0,00 %
06.08.2015 18:06 34,6 C 23 % 1015,5 hPa 0,0 l/m 0,0 km/h (0 Bft) NO 53 5 min 0,000 mm 1,0 UV-I 691 W/m 10,4 C 34,6 C 0,0 km/h (0 Bft) 0,00 %
06.08.2015 18:11 34,3 C 24 % 1015,5 hPa 0,0 l/m 0,0 km/h (0 Bft) N-NO 19 5 min 0,000 mm 1,0 UV-I 551 W/m 10,8 C 34,3 C 0,0 km/h (0 Bft) 0,00 %
06.08.2015 18:16 34,1 C 25 % 1015,6 hPa 0,0 l/m 0,0 km/h (0 Bft) NO 50 5 min 0,000 mm 1,0 UV-I 726 W/m 11,2 C 34,1 C 0,0 km/h (0 Bft) 0,00 %
06.08.2015 18:21 34,1 C 24 % 1015,5 hPa 0,0 l/m 0,0 km/h (0 Bft) NO 44 5 min 0,000 mm 1,0 UV-I 555 W/m 10,6 C 34,1 C 0,0 km/h (0 Bft) 0,00 %
06.08.2015 18:26 34,1 C 25 % 1015,5 hPa 0,0 l/m 0,0 km/h (0 Bft) S 178 5 min 0,000 mm 1,0 UV-I 580 W/m 11,2 C 34,1 C 0,0 km/h (0 Bft) 0,00 %
06.08.2015 18:31 34,1 C 24 % 1015,6 hPa 0,0 l/m 0,0 km/h (0 Bft) NO 50 5 min 0,000 mm 1,0 UV-I 580 W/m 10,6 C 34,1 C 0,0 km/h (0 Bft) 0,00 %
06.08.2015 18:36 33,8 C 24 % 1015,4 hPa 0,0 l/m 0,0 km/h (0 Bft) NO 46 5 min 0,000 mm 1,0 UV-I 662 W/m 10,4 C 33,8 C 0,0 km/h (0 Bft) 0,00 %
06.08.2015 18:41 33,6 C 25 % 1015,3 hPa 0,0 l/m 0,0 km/h (0 Bft) O-NO 68 5 min 0,000 mm 1,0 UV-I 652 W/m 10,8 C 33,6 C 0,0 km/h (0 Bft) 0,00 %
06.08.2015 18:46 33,5 C 25 % 1015,3 hPa 0,0 l/m 0,0 km/h (0 Bft) NO 43 5 min 0,000 mm 1,0 UV-I 543 W/m 10,7 C 33,5 C 0,0 km/h (0 Bft) 0,00 %
06.08.2015 18:51 33,5 C 27 % 1015,3 hPa 0,0 l/m 0,0 km/h (0 Bft) NO 35 5 min 0,000 mm 1,0 UV-I 606 W/m 11,9 C 33,5 C 0,0 km/h (0 Bft) 0,00 %
06.08.2015 18:56 33,5 C 27 % 1015,5 hPa 0,0 l/m 0,0 km/h (0 Bft) N 355 5 min 0,000 mm 1,0 UV-I 494 W/m 11,9 C 33,5 C 0,0 km/h (0 Bft) 0,00 %
06.08.2015 19:01 33,4 C 25 % 1015,4 hPa 0,0 l/m 0,0 km/h (0 Bft) NO 41 5 min 0,000 mm 1,0 UV-I 553 W/m 10,7 C 33,4 C 0,0 km/h (0 Bft) 0,00 %
06.08.2015 19:06 33,3 C 27 % 1015,3 hPa 0,0 l/m 0,0 km/h (0 Bft) N-NO 22 5 min 0,000 mm 1,0 UV-I 396 W/m 11,7 C 33,3 C 0,0 km/h (0 Bft) 0,00 %
06.08.2015 19:11 33,3 C 26 % 1015,3 hPa 0,0 l/m 0,0 km/h (0 Bft) NO 36 5 min 0,000 mm 1,0 UV-I 490 W/m 11,2 C 33,3 C 0,0 km/h (0 Bft) 0,00 %
06.08.2015 19:16 33,2 C 26 % 1015,5 hPa 0,0 l/m 0,0 km/h (0 Bft) NO 41 5 min 0,000 mm 0,0 UV-I 455 W/m 11,1 C 33,2 C 0,0 km/h (0 Bft) 0,00 %
06.08.2015 19:21 33,0 C 27 % 1015,4 hPa 0,0 l/m 0,0 km/h (0 Bft) NO 47 5 min 0,000 mm 0,0 UV-I 432 W/m 11,5 C 33,0 C 0,0 km/h (0 Bft) 0,00 %
06.08.2015 19:26 32,9 C 27 % 1015,5 hPa 0,0 l/m 0,0 km/h (0 Bft) NO 40 5 min 0,000 mm 0,0 UV-I 469 W/m 11,4 C 32,9 C 0,0 km/h (0 Bft) 0,00 %
06.08.2015 19:31 32,8 C 26 % 1015,5 hPa 0,0 l/m 0,0 km/h (0 Bft) NO 40 5 min 0,000 mm 0,0 UV-I 437 W/m 10,7 C 32,8 C 0,0 km/h (0 Bft) 0,00 %
06.08.2015 19:36 32,9 C 25 % 1015,3 hPa 0,0 l/m 0,0 km/h (0 Bft) NO 43 5 min 0,000 mm 0,0 UV-I 316 W/m 10,2 C 32,9 C 0,0 km/h (0 Bft) 0,00 %
06.08.2015 19:41 32,9 C 25 % 1015,4 hPa 0,0 l/m 0,0 km/h (0 Bft) NO 43 5 min 0,000 mm 0,0 UV-I 332 W/m 10,2 C 32,9 C 0,0 km/h (0 Bft) 0,00 %
06.08.2015 19:46 32,9 C 26 % 1015,4 hPa 0,0 l/m 0,0 km/h (0 Bft) NO 40 5 min 0,000 mm 0,0 UV-I 328 W/m 10,8 C 32,9 C 0,0 km/h (0 Bft) 0,00 %
06.08.2015 19:51 32,9 C 27 % 1015,6 hPa 0,0 l/m 0,0 km/h (0 Bft) NO 38 5 min 0,000 mm 0,0 UV-I 271 W/m 11,4 C 32,9 C 0,0 km/h (0 Bft) 0,00 %
06.08.2015 19:56 32,8 C 27 % 1015,5 hPa 0,0 l/m 0,0 km/h (0 Bft) N-NO 33 5 min 0,000 mm 0,0 UV-I 87 W/m 11,3 C 32,8 C 0,0 km/h (0 Bft) 0,00 %
06.08.2015 20:01 32,4 C 27 % 1015,6 hPa 0,0 l/m 0,0 km/h (0 Bft) NO 46 5 min 0,000 mm 0,0 UV-I 72 W/m 11,0 C 32,4 C 0,0 km/h (0 Bft) 0,00 %
06.08.2015 20:06 31,8 C 27 % 1015,5 hPa 0,0 l/m 0,0 km/h (0 Bft) NO 50 5 min 0,000 mm 0,0 UV-I 58 W/m 10,5 C 31,8 C 0,0 km/h (0 Bft) 0,00 %
06.08.2015 20:11 31,1 C 29 % 1015,6 hPa 0,0 l/m 0,0 km/h (0 Bft) NO 50 5 min 0,000 mm 0,0 UV-I 46 W/m 10,9 C 31,1 C 0,0 km/h (0 Bft) 0,00 %
06.08.2015 20:16 30,4 C 32 % 1015,6 hPa 0,0 l/m 0,0 km/h (0 Bft) NO 55 5 min 0,000 mm 0,0 UV-I 34 W/m 11,8 C 30,4 C 0,0 km/h (0 Bft) 0,00 %
06.08.2015 20:21 29,8 C 33 % 1015,8 hPa 0,0 l/m 0,0 km/h (0 Bft) NO 56 5 min 0,000 mm 0,0 UV-I 24 W/m 11,8 C 29,8 C 0,0 km/h (0 Bft) 0,00 %
06.08.2015 20:26 29,2 C 34 % 1015,9 hPa 0,0 l/m 0,0 km/h (0 Bft) NO 56 0 min 0,000 mm 0,0 UV-I 17 W/m 11,7 C 29,2 C 0,0 km/h (0 Bft) 0,00 %
06.08.2015 20:31 28,5 C 36 % 1015,7 hPa 0,0 l/m 0,0 km/h (0 Bft) NO 55 0 min 0,000 mm 0,0 UV-I 7 W/m 12,0 C 28,5 C 0,0 km/h (0 Bft) 0,00 %
06.08.2015 20:36 27,8 C 36 % 1015,8 hPa 0,0 l/m 0,0 km/h (0 Bft) O-NO 59 0 min 0,000 mm 0,0 UV-I 3 W/m 11,3 C 27,8 C 0,0 km/h (0 Bft) 0,00 %
06.08.2015 20:41 27,3 C 35 % 1015,8 hPa 0,0 l/m 0,0 km/h (0 Bft) O-NO 59 0 min 0,000 mm 0,0 UV-I 0 W/m 10,5 C 27,3 C 0,0 km/h (0 Bft) 0,00 %
06.08.2015 20:46 27,0 C 35 % 1016,0 hPa 0,0 l/m 0,0 km/h (0 Bft) O-NO 70 0 min 0,000 mm 0,0 UV-I 0 W/m 10,2 C 27,0 C 0,0 km/h (0 Bft) 0,00 %
06.08.2015 20:51 26,6 C 37 % 1015,9 hPa 0,0 l/m 0,0 km/h (0 Bft) NO 55 0 min 0,000 mm 0,0 UV-I 0 W/m 10,7 C 26,6 C 0,0 km/h (0 Bft) 0,00 %
06.08.2015 20:56 26,3 C 40 % 1016,1 hPa 0,0 l/m 0,0 km/h (0 Bft) NO 44 0 min 0,000 mm 0,0 UV-I 0 W/m 11,6 C 26,3 C 0,0 km/h (0 Bft) 0,00 %
06.08.2015 21:01 26,0 C 42 % 1015,8 hPa 0,0 l/m 0,0 km/h (0 Bft) NO 49 0 min 0,000 mm 0,0 UV-I 0 W/m 12,1 C 26,0 C 0,0 km/h (0 Bft) 0,00 %
06.08.2015 21:06 25,6 C 44 % 1015,8 hPa 0,0 l/m 0,0 km/h (0 Bft) NO 44 0 min 0,000 mm 0,0 UV-I 0 W/m 12,4 C 25,6 C 0,0 km/h (0 Bft) 0,00 %
06.08.2015 21:11 25,2 C 45 % 1016,1 hPa 0,0 l/m 0,0 km/h (0 Bft) NO 50 0 min 0,000 mm 0,0 UV-I 0 W/m 12,4 C 25,2 C 0,0 km/h (0 Bft) 0,00 %
06.08.2015 21:16 24,7 C 44 % 1016,1 hPa 0,0 l/m 0,0 km/h (0 Bft) NO 39 0 min 0,000 mm 0,0 UV-I 0 W/m 11,6 C 24,7 C 0,0 km/h (0 Bft) 0,00 %
06.08.2015 21:21 24,4 C 47 % 1016,0 hPa 0,0 l/m 0,0 km/h (0 Bft) NO 47 0 min 0,000 mm 0,0 UV-I 0 W/m 12,3 C 24,4 C 0,0 km/h (0 Bft) 0,00 %
06.08.2015 21:26 24,1 C 51 % 1016,2 hPa 0,0 l/m 0,0 km/h (0 Bft) NO 50 0 min 0,000 mm 0,0 UV-I 0 W/m 13,3 C 24,1 C 0,0 km/h (0 Bft) 0,00 %
06.08.2015 21:31 23,8 C 48 % 1016,2 hPa 0,0 l/m 0,0 km/h (0 Bft) NO 48 0 min 0,000 mm 0,0 UV-I 0 W/m 12,1 C 23,8 C 0,0 km/h (0 Bft) 0,00 %
06.08.2015 21:36 23,5 C 48 % 1016,0 hPa 0,0 l/m 0,0 km/h (0 Bft) N 353 0 min 0,000 mm 0,0 UV-I 0 W/m 11,8 C 23,5 C 0,0 km/h (0 Bft) 0,00 %
06.08.2015 21:41 23,3 C 50 % 1016,3 hPa 0,0 l/m 0,0 km/h (0 Bft) NO 38 0 min 0,000 mm 0,0 UV-I 0 W/m 12,3 C 23,3 C 0,0 km/h (0 Bft) 0,00 %
06.08.2015 21:46 23,2 C 51 % 1016,2 hPa 0,0 l/m 0,0 km/h (0 Bft) NO 38 0 min 0,000 mm 0,0 UV-I 0 W/m 12,5 C 23,2 C 0,0 km/h (0 Bft) 0,00 %
06.08.2015 21:51 23,1 C 53 % 1016,2 hPa 0,0 l/m 0,0 km/h (0 Bft) NO 38 0 min 0,000 mm 0,0 UV-I 0 W/m 13,0 C 23,1 C 0,0 km/h (0 Bft) 0,00 %
06.08.2015 21:56 22,9 C 55 % 1016,2 hPa 0,0 l/m 0,0 km/h (0 Bft) NO 38 0 min 0,000 mm 0,0 UV-I 0 W/m 13,4 C 22,9 C 0,0 km/h (0 Bft) 0,00 %
06.08.2015 22:01 22,6 C 56 % 1016,3 hPa 0,0 l/m 0,0 km/h (0 Bft) NO 38 0 min 0,000 mm 0,0 UV-I 0 W/m 13,4 C 22,6 C 0,0 km/h (0 Bft) 0,00 %
06.08.2015 22:06 22,4 C 57 % 1016,3 hPa 0,0 l/m 0,0 km/h (0 Bft) NO 39 0 min 0,000 mm 0,0 UV-I 0 W/m 13,5 C 22,4 C 0,0 km/h (0 Bft) 0,00 %
06.08.2015 22:11 22,2 C 58 % 1016,2 hPa 0,0 l/m 0,0 km/h (0 Bft) NO 39 0 min 0,000 mm 0,0 UV-I 0 W/m 13,5 C 22,2 C 0,0 km/h (0 Bft) 0,00 %
06.08.2015 22:16 21,9 C 58 % 1016,3 hPa 0,0 l/m 0,0 km/h (0 Bft) NO 39 0 min 0,000 mm 0,0 UV-I 0 W/m 13,3 C 21,9 C 0,0 km/h (0 Bft) 0,00 %
06.08.2015 22:21 21,7 C 58 % 1016,3 hPa 0,0 l/m 0,0 km/h (0 Bft) NO 40 0 min 0,000 mm 0,0 UV-I 0 W/m 13,1 C 21,7 C 0,0 km/h (0 Bft) 0,00 %
06.08.2015 22:26 21,5 C 59 % 1016,3 hPa 0,0 l/m 0,0 km/h (0 Bft) NO 40 0 min 0,000 mm 0,0 UV-I 0 W/m 13,1 C 21,5 C 0,0 km/h (0 Bft) 0,00 %
06.08.2015 22:31 21,3 C 60 % 1016,2 hPa 0,0 l/m 0,0 km/h (0 Bft) NO 47 0 min 0,000 mm 0,0 UV-I 0 W/m 13,2 C 21,3 C 0,0 km/h (0 Bft) 0,00 %
06.08.2015 22:36 21,1 C 61 % 1016,5 hPa 0,0 l/m 0,0 km/h (0 Bft) NO 47 0 min 0,000 mm 0,0 UV-I 0 W/m 13,3 C 21,1 C 0,0 km/h (0 Bft) 0,00 %
06.08.2015 22:41 20,9 C 60 % 1016,3 hPa 0,0 l/m 0,0 km/h (0 Bft) NO 42 0 min 0,000 mm 0,0 UV-I 0 W/m 12,8 C 20,9 C 0,0 km/h (0 Bft) 0,00 %
06.08.2015 22:46 20,8 C 61 % 1016,3 hPa 0,0 l/m 0,0 km/h (0 Bft) NO 45 0 min 0,000 mm 0,0 UV-I 0 W/m 13,0 C 20,8 C 0,0 km/h (0 Bft) 0,00 %
06.08.2015 22:51 20,6 C 63 % 1016,4 hPa 0,0 l/m 0,0 km/h (0 Bft) NO 49 0 min 0,000 mm 0,0 UV-I 0 W/m 13,3 C 20,6 C 0,0 km/h (0 Bft) 0,00 %
06.08.2015 22:56 20,5 C 63 % 1016,3 hPa 0,0 l/m 0,0 km/h (0 Bft) NO 49 0 min 0,000 mm 0,0 UV-I 0 W/m 13,2 C 20,5 C 0,0 km/h (0 Bft) 0,00 %
06.08.2015 23:01 20,5 C 63 % 1016,3 hPa 0,0 l/m 0,0 km/h (0 Bft) NO 49 0 min 0,000 mm 0,0 UV-I 0 W/m 13,2 C 20,5 C 0,0 km/h (0 Bft) 0,00 %
06.08.2015 23:06 20,4 C 64 % 1016,3 hPa 0,0 l/m 0,0 km/h (0 Bft) NO 34 0 min 0,000 mm 0,0 UV-I 0 W/m 13,4 C 20,4 C 0,0 km/h (0 Bft) 0,00 %
06.08.2015 23:11 20,3 C 65 % 1016,4 hPa 0,0 l/m 0,0 km/h (0 Bft) NO 40 0 min 0,000 mm 0,0 UV-I 0 W/m 13,5 C 20,3 C 0,0 km/h (0 Bft) 0,00 %
06.08.2015 23:16 20,3 C 65 % 1016,3 hPa 0,0 l/m 0,0 km/h (0 Bft) NO 41 0 min 0,000 mm 0,0 UV-I 0 W/m 13,5 C 20,3 C 0,0 km/h (0 Bft) 0,00 %
06.08.2015 23:21 20,2 C 66 % 1016,3 hPa 0,0 l/m 0,0 km/h (0 Bft) NO 41 0 min 0,000 mm 0,0 UV-I 0 W/m 13,6 C 20,2 C 0,0 km/h (0 Bft) 0,00 %
06.08.2015 23:26 20,1 C 67 % 1016,5 hPa 0,0 l/m 0,0 km/h (0 Bft) NO 42 0 min 0,000 mm 0,0 UV-I 0 W/m 13,8 C 20,1 C 0,0 km/h (0 Bft) 0,00 %
06.08.2015 23:31 20,0 C 69 % 1016,4 hPa 0,0 l/m 0,0 km/h (0 Bft) NO 48 0 min 0,000 mm 0,0 UV-I 0 W/m 14,1 C 20,0 C 0,0 km/h (0 Bft) 0,00 %
06.08.2015 23:36 20,0 C 70 % 1016,6 hPa 0,0 l/m 0,0 km/h (0 Bft) NO 48 0 min 0,000 mm 0,0 UV-I 0 W/m 14,4 C 20,0 C 0,0 km/h (0 Bft) 0,00 %
06.08.2015 23:41 19,9 C 69 % 1016,5 hPa 0,0 l/m 0,0 km/h (0 Bft) NO 48 0 min 0,000 mm 0,0 UV-I 0 W/m 14,0 C 19,9 C 0,0 km/h (0 Bft) 0,00 %
06.08.2015 23:46 19,9 C 68 % 1016,4 hPa 0,0 l/m 0,0 km/h (0 Bft) NO 48 0 min 0,000 mm 0,0 UV-I 0 W/m 13,8 C 19,9 C 0,0 km/h (0 Bft) 0,00 %
06.08.2015 23:51 19,9 C 68 % 1016,5 hPa 0,0 l/m 0,0 km/h (0 Bft) NO 48 0 min 0,000 mm 0,0 UV-I 0 W/m 13,8 C 19,9 C 0,0 km/h (0 Bft) 0,00 %
06.08.2015 23:56 19,9 C 69 % 1016,4 hPa 0,0 l/m 0,0 km/h (0 Bft) NO 48 0 min 0,000 mm 0,0 UV-I 0 W/m 14,0 C 19,9 C 0,0 km/h (0 Bft) 0,00 %
_ Min-Zeit 05:35 16:46 18:41 - 00:00 - - - - - - 17:51 05:35 00:00 00:00
Minimum _ 15,9 C 21 % 1015,3 hPa - 0,0 km/h (0 Bft) - - - - - - 9,3 C 15,9 C 0,0 km/h (0 Bft) 0,00 %
_ Max-Zeit 16:51 05:20 09:05 00:00 12:35 - - 15:06 00:00 12:25 15:06 12:10 16:51 12:35 00:00
Maximum _ 35,6 C 94 % 1017,9 hPa 0,0 l/m 8,3 km/h
O-SO (2 Bft)
- - 6 min 0,000 mm 5,0 UV-I 975 W/m 18,2 C 35,6 C 11,9 km/h
O-SO (2 Bft)
0,00 %
Durchschnitt _ 26,2 C 55 % 1016,5 hPa #0,0 l/m 0,3 km/h (0 Bft) N-NW - #14:26 h #0,000 mm 2,5 UV-I 605 W/m 14,4 C 26,2 C 0,6 km/h (0 Bft) 0,00 %